Tracking 29892 objects as of 21-Nov-2024
HD Live streaming from Space Station
objects crossing your sky now

STARLINK-31708

Track STARLINK-31708 now!
10-day predictions
STARLINK-31708 is classified as:


NORAD ID: 59439
Int'l Code: 2024-065U
Perigee: 453.5 km
Apogee: 455.2 km
Inclination: 53.2 °
Period: 93.5 minutes
Semi major axis: 6825 km
RCS: Unknown
Launch date: April 7, 2024
Source: United States (US)
Launch site: AIR FORCE WESTERN TEST RANGE (AFWTR)
Your satellite tracking list
Your tracking list is empty




NASA's NSSDC Master Catalog

Two Line Element Set (TLE):
1 59439U 24065U   24325.04506968  .00000980  00000-0  34472-4 0  9992
2 59439  53.1593 329.5807 0001281  84.0795 276.0356 15.39631663 36211
Source of the keplerian elements: AFSPC